SKYNET 5A

Last updated on Sat Apr 13 2024 01:02:37 GMT+0100 (British Summer Time)

1 30794U 07007B 24103.53969442 -.00000280 00000+0 00000+0 0 9998 2 30794 3.2629 83.2251 0003728 306.1261 101.3611 1.00274546 62726
UTC large
Height (km)
Speed (km/s)
/
Latitude / Longitude
Inclination (degrees)
Orbital Period (minutes)
Azimuth
Elevation
Range (km)
Doppler Factor

Next 0 passes for location: London (51.5072 / 0.1276)

Sorry there are no passes over London.